Location: Helion Bumpstead
(52.0500°N, 0.4000°E)
Time: 21:49:00
(UTC+00:00)

Cosmos 1725 Rocket - Pass Details

Date: 23 February 2026
Orbit: 962 x 989 km, 82.9° (Epoch: 11 March)

Event Time Altitude Azimuth Distance (km) Brightness Sun altitude
Rises 18:19:29 0° 339° (NNW) 3,691 7.3 -8.8°
Reaches altitude 10° 18:23:01 10° 319° (NW) 2,743 6.9 -9.3°
Maximum altitude 18:26:36 16° 284° (WNW) 2,328 7.2 -9.9°
Drops below altitude 10° 18:30:12 10° 249° (WSW) 2,742 7.7 -10.4°
Sets 18:33:44 0° 229° (SW) 3,689 7.9 -11.0°
